Date String (YYYY-MM-DD hh:mm:ss) UTC,Instrument flags,absolute air pressure of the measurement (hPa),sample flow rate (lpm),inlet stack bypass flow (lpm),air temperature of the measurement (°C),ambient temperature measured by the external sensor (°C),aerosol sample conditioner tube jacket temperature (°C),OPC LED temperature (°C),internal box temperature (°C),relative humidity of the measurement (%),span deviation,mass concentration of particles derived from Lorenz-Mie calculation of OPC scattering (μg/m³),mass concentration of particles derived from Lorenz-Mie calculation of OPC scattering (μg/m³),mass concentration of particles derived from Lorenz-Mie calculation of OPC scattering (μg/m³)
DateTimeUTC,F1_M11,P_M11,Q1_M11,Q2_M11,T1_M11,T2_M11,T3_M11,T4_M11,T5_M11,U1_M11,ZSPAN_M11,X2_M11,X0_M11,X1_M11
2023-08-05 23:00:00,SystemResetWarning,0832.9,5.00,000.00,030.2,027.4,000.0,038.5,031.2,28.0,-001.0,0007.02,0017.28,0006.07
2023-08-05 23:01:00,SystemResetWarning,0833.2,5.00,000.00,030.2,027.7,000.0,038.5,031.2,27.6,-000.5,0006.98,0017.16,0006.04
2023-08-05 23:02:00,SystemResetWarning,0833.2,5.00,000.00,030.2,027.9,000.0,038.5,031.3,28.2,-000.3,0006.89,0016.79,0006.00
2023-08-05 23:03:00,SystemResetWarning,0832.9,5.00,000.00,030.2,027.6,000.0,038.4,031.3,28.3,0000.5,0006.82,0016.67,0005.96
2023-08-05 23:04:00,SystemResetWarning,0833.2,4.98,000.00,030.2,026.0,000.0,038.3,031.0,26.8,0000.7,0006.70,0016.28,0005.91
2023-08-05 23:05:00,SystemResetWarning,0833.4,5.01,000.00,030.1,025.1,000.0,038.2,030.7,26.6,0000.7,0006.68,0015.62,0005.88
2023-08-05 23:06:00,SystemResetWarning,0833.2,5.01,000.00,030.0,025.0,000.0,038.1,030.6,26.9,0001.0,0006.63,0014.45,0005.84
2023-08-05 23:07:00,SystemResetWarning,0833.1,5.00,000.00,029.8,025.4,000.0,038.2,030.5,27.7,0001.2,0006.61,0013.24,0005.80
2023-08-05 23:08:00,SystemResetWarning,0833.0,5.00,000.00,029.8,025.9,000.0,038.2,030.7,27.8,0001.0,0006.56,0013.07,0005.75
2023-08-05 23:09:00,SystemResetWarning,0833.1,5.00,000.00,029.8,026.3,000.0,038.2,030.8,27.8,0000.9,0006.51,0012.52,0005.72
2023-08-05 23:10:00,SystemResetWarning,0833.1,4.99,000.00,029.8,026.8,000.0,038.2,030.9,27.3,0000.2,0006.44,0011.76,0005.66
2023-08-05 23:11:00,SystemResetWarning,0833.0,5.00,000.00,029.8,027.1,000.0,038.2,031.0,26.5,0000.0,0006.34,0011.80,0005.58
2023-08-05 23:12:00,SystemResetWarning,0833.0,5.01,000.00,029.8,027.4,000.0,038.2,031.1,26.6,0000.0,0006.24,0011.60,0005.48
2023-08-05 23:13:00,SystemResetWarning,0833.0,5.00,000.00,029.8,027.7,000.0,038.2,031.2,26.8,0000.0,0006.16,0011.92,0005.41
2023-08-05 23:14:00,SystemResetWarning,0833.1,5.00,000.00,029.9,027.9,000.0,038.2,031.2,26.4,0000.0,0006.05,0011.99,0005.32
2023-08-05 23:15:00,SystemResetWarning,0833.2,4.99,000.00,029.9,027.2,000.0,038.1,031.1,26.5,0000.0,0005.96,0011.69,0005.22
2023-08-05 23:16:00,SystemResetWarning,0833.2,4.99,000.00,029.9,025.6,000.0,038.0,030.8,26.3,0000.0,0005.87,0011.59,0005.12
2023-08-05 23:17:00,SystemResetWarning,0833.2,5.01,000.00,029.8,025.0,000.0,037.9,030.7,26.3,0000.0,0005.74,0011.35,0005.01
2023-08-05 23:18:00,SystemResetWarning,0833.2,5.01,000.00,029.7,025.1,000.0,037.9,030.5,26.7,0000.0,0005.58,0011.20,0004.89
2023-08-05 23:19:00,SystemResetWarning,0833.2,5.00,000.00,029.5,025.5,000.0,037.9,030.5,27.4,0000.0,0005.40,0010.60,0004.75
2023-08-05 23:20:00,SystemResetWarning,0833.3,4.98,000.00,029.5,026.0,000.0,037.9,030.6,28.0,0000.0,0005.25,0010.33,0004.63
2023-08-05 23:21:00,SystemResetWarning,0833.4,4.99,000.00,029.5,026.4,000.0,037.9,030.8,27.3,0000.0,0005.15,0010.73,0004.52
2023-08-05 23:22:00,SystemResetWarning,0833.4,5.01,000.00,029.5,026.8,000.0,038.0,030.9,27.4,0000.0,0005.08,0011.23,0004.45
2023-08-05 23:23:00,SystemResetWarning,0833.6,5.00,000.00,029.6,027.2,000.0,038.0,031.0,27.5,0000.0,0004.98,0010.94,0004.38
2023-08-05 23:24:00,SystemResetWarning,0833.7,5.00,000.00,029.6,027.5,000.0,038.0,031.0,28.1,0000.0,0004.94,0010.47,0004.33
2023-08-05 23:25:00,SystemResetWarning,0833.7,5.00,000.00,029.6,027.7,000.0,038.0,031.1,28.9,0000.0,0004.93,0010.19,0004.30
2023-08-05 23:26:00,SystemResetWarning,0833.7,4.99,000.00,029.7,027.9,000.0,038.0,031.2,28.6,0000.0,0004.90,0009.85,0004.26
2023-08-05 23:27:00,SystemResetWarning,0833.8,4.99,000.00,029.7,026.8,000.0,037.9,030.9,29.2,0000.0,0004.84,0009.73,0004.23
2023-08-05 23:28:00,SystemResetWarning,0833.8,5.00,000.00,029.6,025.2,000.0,037.8,030.7,28.9,0000.0,0004.81,0009.72,0004.20
2023-08-05 23:29:00,SystemResetWarning,0833.8,5.00,000.00,029.5,024.9,000.0,037.7,030.5,28.4,0000.0,0004.78,0009.77,0004.18
2023-08-05 23:30:00,SystemResetWarning,0833.9,5.01,000.00,029.4,025.1,000.0,037.7,030.3,28.9,0000.0,0004.75,0010.49,0004.17
2023-08-05 23:31:00,SystemResetWarning,0834.0,5.00,000.00,029.3,025.6,000.0,037.7,030.4,29.4,0000.0,0004.75,0012.17,0004.17
2023-08-05 23:32:00,SystemResetWarning,0834.0,4.99,000.00,029.3,026.0,000.0,037.8,030.6,30.3,0000.0,0004.72,0011.57,0004.15
2023-08-05 23:33:00,SystemResetWarning,0834.0,5.01,000.00,029.3,026.5,000.0,037.8,030.7,29.9,0000.0,0004.67,0010.74,0004.14
2023-08-05 23:34:00,SystemResetWarning,0833.9,5.00,000.00,029.3,026.9,000.0,037.8,030.8,30.1,0000.0,0004.65,0010.90,0004.12
2023-08-05 23:35:00,SystemResetWarning,0833.8,5.00,000.00,029.4,027.3,000.0,037.8,030.9,30.1,0000.0,0004.61,0011.41,0004.10
2023-08-05 23:36:00,SystemResetWarning,0834.0,5.00,000.00,029.4,027.5,000.0,037.8,031.0,30.3,0000.0,0004.53,0011.28,0004.07
2023-08-05 23:37:00,SystemResetWarning,0834.1,5.00,000.00,029.4,027.8,000.0,037.8,031.0,30.0,0000.0,0004.51,0011.22,0004.04
2023-08-05 23:38:00,SystemResetWarning,0834.1,5.00,000.00,029.5,028.0,000.0,037.8,031.1,30.3,0000.0,0004.51,0011.23,0004.02
2023-08-05 23:39:00,SystemResetWarning,0834.0,4.99,000.00,029.5,027.2,000.0,037.8,031.0,29.4,0000.0,0004.50,0011.92,0004.00
2023-08-05 23:40:00,SystemResetWarning,0833.9,4.99,000.00,029.4,025.6,000.0,037.6,030.6,29.6,0000.0,0004.48,0011.64,0004.01
2023-08-05 23:41:00,SystemResetWarning,0833.7,5.01,000.00,029.4,025.0,000.0,037.5,030.5,29.6,0000.0,0004.51,0011.05,0004.00
2023-08-05 23:42:00,SystemResetWarning,0833.7,5.01,000.00,029.3,025.1,000.0,037.5,030.4,30.0,0000.0,0004.52,0009.48,0003.99
2023-08-05 23:43:00,SystemResetWarning,0833.7,4.99,000.00,029.2,025.5,000.0,037.6,030.4,30.4,0000.0,0004.52,0009.96,0003.99
2023-08-05 23:44:00,SystemResetWarning,0833.7,5.01,000.00,029.2,026.0,000.0,037.6,030.5,30.3,0000.0,0004.52,0010.10,0003.99
2023-08-05 23:45:00,SystemResetWarning,0833.7,5.00,000.00,029.2,026.4,000.0,037.6,030.7,30.5,0000.0,0004.50,0009.65,0003.99
2023-08-05 23:46:00,SystemResetWarning,0833.7,5.00,000.00,029.2,026.8,000.0,037.6,030.7,30.5,0000.0,0004.52,0009.01,0004.00
2023-08-05 23:47:00,SystemResetWarning,0833.7,5.00,000.00,029.2,027.2,000.0,037.7,030.8,30.6,0000.0,0004.54,0009.05,0004.01
2023-08-05 23:48:00,SystemResetWarning,0833.7,5.00,000.00,029.3,027.5,000.0,037.7,030.9,30.2,0000.0,0004.54,0009.20,0004.03
2023-08-05 23:49:00,SystemResetWarning,0833.7,5.00,000.00,029.3,027.7,000.0,037.7,031.0,25.4,0000.0,0004.56,0009.54,0004.06
2023-08-05 23:50:00,SystemResetWarning,0833.6,5.00,000.00,029.4,027.9,000.0,037.7,031.0,21.4,0000.0,0004.60,0008.95,0004.09
2023-08-05 23:51:00,SystemResetWarning,0833.4,4.98,000.00,029.4,026.7,000.0,037.6,030.8,20.4,0000.0,0004.61,0008.91,0004.11
2023-08-05 23:52:00,SystemResetWarning,0833.3,5.01,000.00,029.3,025.2,000.0,037.5,030.4,19.9,0000.0,0004.61,0008.90,0004.13
2023-08-05 23:53:00,SystemResetWarning,0833.3,5.00,000.00,029.2,024.9,000.0,037.4,030.3,20.0,0000.0,0004.62,0008.82,0004.16
2023-08-05 23:54:00,SystemResetWarning,0833.4,5.01,000.00,029.1,025.1,000.0,037.5,030.2,20.2,0000.0,0004.63,0008.47,0004.17
2023-08-05 23:55:00,SystemResetWarning,0833.4,5.00,000.00,029.0,025.6,000.0,037.5,030.3,20.9,0000.0,0004.67,0008.26,0004.20
2023-08-05 23:56:00,SystemResetWarning,0833.5,5.00,000.00,029.0,026.0,000.0,037.5,030.4,20.8,0000.0,0004.73,0008.31,0004.25
2023-08-05 23:57:00,SystemResetWarning,0833.5,5.00,000.00,029.1,026.5,000.0,037.5,030.6,20.3,0000.0,0004.77,0008.50,0004.29
2023-08-05 23:58:00,SystemResetWarning,0833.6,5.00,000.00,029.1,026.9,000.0,037.5,030.7,20.5,0000.0,0004.81,0009.20,0004.31
2023-08-05 23:59:00,SystemResetWarning,0833.7,5.00,000.00,029.1,027.2,000.0,037.6,030.8,20.7,0000.0,0004.82,0010.08,0004.33
